TimePDT,TemperatureF,Dew PointF,Humidity,Sea Level PressureIn,VisibilityMPH,Wind Direction,Wind SpeedMPH,Gust SpeedMPH,PrecipitationIn,Events,Conditions,WindDirDegrees,DateUTC
12:53 AM,35.1,30.0,82,30.30,7.0,Calm,Calm,-,N/A,,Clear,0,2013-10-26 07:53:00
1:53 AM,35.1,30.0,82,30.30,7.0,Calm,Calm,-,N/A,,Clear,0,2013-10-26 08:53:00
2:53 AM,34.0,30.0,85,30.30,7.0,Calm,Calm,-,N/A,,Clear,0,2013-10-26 09:53:00
3:53 AM,34.0,30.0,85,30.30,7.0,Calm,Calm,-,N/A,,Clear,0,2013-10-26 10:53:00
4:53 AM,39.9,36.0,86,30.29,8.0,Calm,Calm,-,N/A,,Clear,0,2013-10-26 11:53:00
5:53 AM,42.1,37.0,82,30.30,8.0,Calm,Calm,-,N/A,,Clear,0,2013-10-26 12:53:00
6:53 AM,42.1,37.9,85,30.31,9.0,Calm,Calm,-,N/A,,Clear,0,2013-10-26 13:53:00
7:53 AM,43.0,37.9,82,30.33,8.0,Calm,Calm,-,N/A,,Clear,0,2013-10-26 14:53:00
8:53 AM,48.0,41.0,77,30.33,8.0,ESE,5.8,-,N/A,,Clear,120,2013-10-26 15:53:00
9:53 AM,51.1,39.0,63,30.34,9.0,East,10.4,-,N/A,,Clear,100,2013-10-26 16:53:00
10:53 AM,55.0,37.9,53,30.33,10.0,SE,9.2,-,N/A,,Clear,130,2013-10-26 17:53:00
11:53 AM,57.9,39.0,49,30.32,10.0,ESE,8.1,-,N/A,,Clear,120,2013-10-26 18:53:00
12:53 PM,59.0,37.9,46,30.30,10.0,South,6.9,-,N/A,,Clear,180,2013-10-26 19:53:00
1:53 PM,62.1,39.0,43,30.27,9.0,SSE,3.5,-,N/A,,Clear,150,2013-10-26 20:53:00
2:53 PM,62.1,39.0,43,30.25,9.0,Calm,Calm,-,N/A,,Clear,0,2013-10-26 21:53:00
3:53 PM,62.1,41.0,46,30.25,8.0,West,5.8,-,N/A,,Clear,280,2013-10-26 22:53:00
4:53 PM,59.0,41.0,51,30.22,8.0,WNW,4.6,-,N/A,,Clear,290,2013-10-26 23:53:00
5:53 PM,50.0,39.0,66,30.21,8.0,Calm,Calm,-,N/A,,Clear,0,2013-10-27 00:53:00
6:53 PM,43.0,35.1,74,30.22,8.0,Calm,Calm,-,N/A,,Clear,0,2013-10-27 01:53:00
7:53 PM,41.0,34.0,76,30.20,7.0,Calm,Calm,-,N/A,,Clear,0,2013-10-27 02:53:00
8:53 PM,37.0,32.0,82,30.19,8.0,Calm,Calm,-,N/A,,Clear,0,2013-10-27 03:53:00
9:53 PM,35.1,30.0,82,30.17,7.0,Calm,Calm,-,N/A,,Clear,0,2013-10-27 04:53:00
10:53 PM,34.0,28.0,79,30.14,7.0,Calm,Calm,-,N/A,,Clear,0,2013-10-27 05:53:00
11:53 PM,32.0,27.0,82,30.11,6.0,Calm,Calm,-,N/A,,Haze,0,2013-10-27 06:53:00